World > North America > United States > Washington

Goose Prairie, Washington Regional Weather

Lat: 46.90N, Lon: 121.27W
Wx Zone: WAZ520Web Search
Goose Prairie Weather Warning NWS WEATHER ALERT FOR THE GOOSE PRAIRIE, WA AREA - WINTER WEATHER ADVISORY Issued: 601 AM PDT Sat Apr 10 2021 Goose Prairie Weather Warning  

Pass this page to a friend. Tell them to point their camera at the QR Code near the bottom of this page.

Feedback


°F Click to change Goose Prairie hourly weather to Imperial units.Click to change Goose Prairie hourly weather to Metric units. °C
Goose Prairie Weather Map
UTC Time: 4/10/2021, 19:17
Your Time:

Goose Prairie, WA Regional Weather

Expires:202104102000;;343794
ASUS46 KSEW 101910
RWRWA 

WASHINGTON REGIONAL WEATHER ROUNDUP
NATIONAL WEATHER SERVICE SEATTLE WA
1200 PM PDT SAT APR 10 2021

NOTE:"FAIR" INDICATES FEW OR NO CLOUDS BELOW 12,000 FEET WITH NO 
SIGNIFICANT WEATHER AND/OR OBSTRUCTIONS TO VISIBILITY.


WAZ026-027-041>044-520-521-102000-
EAST SLOPES
  
CITY           SKY/WX    TMP DP  RH WIND       PRES   REMARKS
OMAK           PTSUNNY   49   9  19 NW13G21   29.94R                  
WENATCHEE      MOSUNNY   47  15  27 W22G29    30.02R                  
ELLENSBURG     MOSUNNY   45  21  38 NW29G46   30.06R                  
YAKIMA         CLOUDY    48  14  25 W21G35    30.07R                  
SUNNYSIDE ARPT PTCLDY    52  16  24 W26G35    30.07                   
YAKIMA TC      MOCLDY    46  11  24 NW14G21   30.04R                  
$$


SKY/WX - Weather  TMP - Temperature  DP - Dew Point  RH - Relative Humidity
WIND - Wind Direction/Speed PRES - Barometric Pressure VSB - Visibility
WCI - Wind Chill Index E13G22 Wind - East Wind 13 mph/Gusts of 22 mph